STARLINK-3102, 49151

Orbit data source: Space-Track

STARLINK-3102, 49151 is a payload satellite owned by SpaceX/Seattle (US) in LEO that was launched on Tue, 14 Sep 2021 UTC via an FALCON 9 launch vehicle from the Air Force Western Test Range (AFWTR). Payload-class satellites include a variety of spacecraft equipped with specific instruments for various scientific and technological missions. These include communications satellites like Starlink; space stations such as the ISS; scientific satellites like the Hubble; Earth observation satellites from companies like Planet Labs, Umbra, and HawkEye 360; GPS; miniature CubeSats for education and research; and military/defense satellites.

Loading next visibility...
Identifier
49151, 2021-082X
Orbit
LEO
Country
Flag of USUS
Related business
Manufacturer
SpaceX/Seattle
Mission
Operational Commercial Communications
Bus & Motor
STARLINK, Unknown motor
Mass
297 kg wet, ~275 kg dry
Launch date (UTC)
2021-09-14 (5 years ago)
Launch vehicle
FALCON 9
Launch site
Air Force Western Test Range (AFWTR)
Object type
Payload
Rocket body
Debris
Shape & HBR
Box + 1 Pan, 10.1 m
Radar Cross Section
13.562 m², Large (>1 m²)

Expand to show TLE details & history
Last TLE update: 3 days ago

TLE from 3 days ago
0 STARLINK-3102
1 49151U 21082X   26170.91883904 -.00000056  00000-0  31181-5 0  9992
2 49151  69.9996 356.6925 0003002 267.0197  93.0619 14.98330011263473
Epoch: 2026-06-19T22:03Z
TLE epoch observation values (Epoch: 2026-06-19T22:03:07.693Z)
Latitude
0.00004°
Longitude
117.76955°
Altitude
574.592 km
Speed
7.574 km/s
True Right ascension
23h 46m 46s
True Declination
0° 00' 00"
Sunlit
Object was in daylight at epoch
Visualization orbit readout
Latitude
Unknown
Longitude
Unknown
Altitude
Unknown
Speed
Unknown
Apparent Right ascension
Unknown
Apparent Declination
Unknown
Sunlit
N/A
Visualization observer readout
Local Sidereal Time
21:37:58
Azimuth
Unknown
Elevation
Unknown
Doppler factor
Unknown
Orbital elements
Apogee altitude
572.09 km
Perigee altitude
567.918 km
Semi-major axis
6,948.141 km
Eccentricity
0.0003
Inclination
69.9996°
RAAN
356.6925°
Arg. of periapsis
267.0197°
True anomaly
93.09625°
Mean anomaly
93.0619°
Eccentric anomaly
93.07908°
Mean motion
3.74749 °/min
Orbital period
96.06 mins
BSTAR
0.0000031181
Loading maneuver chart data...
Computing Atmospheric mass density...

Documentation

Showing up to 5 results
|